Change the Weather History Date:

Monday, August 26, 2013

  Actual Average Record
Temperature  
Mean Temperature 76 °F -  
Max Temperature 86 °F 89 °F 107 °F (1943)
Min Temperature 66 °F 66 °F 50 °F (1927)
Cooling Degree Days 11    
Growing Degree Days 26 (Base 50)    
Moisture  
Dew Point 70 °F    
Average Humidity 93    
Maximum Humidity 100    
Minimum Humidity 63    
Precipitation  
Precipitation 0.00 in - - ()
Sea Level Pressure  
Sea Level Pressure 30.19 in    
Wind  
Wind Speed 1 mph (SSW)    
Max Wind Speed 10 mph    
Max Gust Speed -    
Visibility 4 miles    
Events Fog    
Averages and records for this station are not official NWS values.
T = Trace of Precipitation, MM = Missing Value Source: NWS Daily Summary

Daily Weather History Graph

Daily Weather History Graph

Search for Another Location

Airport or City:

Trip Planner

Search our weather history database for the weather conditions in past years. The results will help you decide how hot, cold, wet, or windy it might be!

Date:

Astronomy

Aug. 26, 2013 Rise Set
Actual Time 6:27 AM CDT 7:37 PM CDT
Civil Twilight 6:00 AM CDT 8:04 PM CDT
Nautical Twilight 5:28 AM CDT 8:36 PM CDT
Astronomical Twilight 4:55 AM CDT 9:09 PM CDT
Moon 10:59 PM CDT (8/26) 12:18 PM CDT (8/26)
Length of Visible Light 14h 03m
Length of Day
13h 09m
Waning Gibbous, 66% of the Moon is Illuminated
Aug 26
Waning Gibbous
Aug 28
Last Quarter
Sep 5
New
Sep 12
First Quarter
Sep 19
Full

Hourly Weather History & Observations

Time (CDT) Temp. Heat Index Dew Point Humidity Pressure Visibility Wind Dir Wind Speed Gust Speed Precip Events Conditions
12:53 AM 70.0 °F - 70.0 °F 100% 30.20 in 4.0 mi Calm Calm - N/A   Clear
1:09 AM 71.6 °F - 71.6 °F 100% 30.22 in 2.5 mi Calm Calm - N/A   Clear
1:36 AM 69.8 °F - 69.8 °F 100% 30.21 in 0.8 mi Calm Calm - N/A   Clear
1:53 AM 69.1 °F - 69.1 °F 100% 30.19 in 0.8 mi Calm Calm - N/A   Clear
2:10 AM 69.8 °F - 69.8 °F 100% 30.21 in 2.0 mi Calm Calm - N/A   Clear
2:45 AM 69.8 °F - 69.8 °F 100% 30.21 in 3.0 mi Calm Calm - 0.00 in   Clear
2:53 AM 69.1 °F - 69.1 °F 100% 30.20 in 3.0 mi Calm Calm - 0.00 in   Clear
3:44 AM 69.8 °F - 69.8 °F 100% 30.21 in 2.0 mi Calm Calm - N/A   Partly Cloudy
3:53 AM 69.1 °F - 69.1 °F 100% 30.19 in 2.0 mi Calm Calm - N/A   Partly Cloudy
4:06 AM 68.0 °F - 68.0 °F 100% 30.20 in 3.0 mi Calm Calm - N/A   Partly Cloudy
4:15 AM 68.0 °F - 68.0 °F 100% 30.20 in 1.8 mi Calm Calm - N/A   Clear
4:22 AM 68.0 °F - 68.0 °F 100% 30.20 in 0.2 mi Calm Calm - N/A Fog Fog
4:43 AM 68.0 °F - 68.0 °F 100% 30.20 in 1.0 mi Calm Calm - N/A   Mist
4:46 AM 68.0 °F - 68.0 °F 100% 30.20 in 2.0 mi Calm Calm - N/A   Scattered Clouds
4:53 AM 68.0 °F - 68.0 °F 100% 30.19 in 4.0 mi Calm Calm - N/A   Partly Cloudy
5:02 AM 66.2 °F - 66.2 °F 100% 30.21 in 1.8 mi Calm Calm - N/A   Clear
5:07 AM 66.2 °F - 66.2 °F 100% 30.20 in 0.8 mi Calm Calm - N/A   Mist
5:21 AM 68.0 °F - 68.0 °F 100% 30.21 in 1.2 mi Calm Calm - N/A   Partly Cloudy
5:35 AM 66.2 °F - 66.2 °F 100% 30.21 in 0.2 mi Calm Calm - N/A Fog Fog
5:42 AM 66.2 °F - 66.2 °F 100% 30.21 in 0.5 mi Calm Calm - N/A Fog Fog
5:53 AM 66.9 °F - 66.9 °F 100% 30.20 in 0.2 mi Calm Calm - N/A Fog Fog
6:00 AM 66.2 °F - 66.2 °F 100% 30.22 in 0.8 mi Calm Calm - N/A   Mist
6:03 AM 66.2 °F - 66.2 °F 100% 30.22 in 0.8 mi Calm Calm - N/A   Mist
6:20 AM 66.2 °F - 66.2 °F 100% 30.22 in 1.0 mi Calm Calm - N/A   Mist
6:25 AM 66.2 °F - 66.2 °F 100% 30.22 in 0.8 mi Calm Calm - N/A   Mist
6:46 AM 66.2 °F - 66.2 °F 100% 30.23 in 0.2 mi Calm Calm - N/A Fog Fog
6:53 AM 66.9 °F - 66.9 °F 100% 30.22 in 0.2 mi Calm Calm - N/A Fog Fog
7:08 AM 68.0 °F - 68.0 °F 100% 30.23 in 0.5 mi Calm Calm - N/A Fog Fog
7:17 AM 68.0 °F - 68.0 °F 100% 30.24 in 1.2 mi Calm Calm - N/A   Mostly Cloudy
7:40 AM 69.8 °F - 69.8 °F 100% 30.24 in 2.0 mi Calm Calm - N/A   Scattered Clouds
7:53 AM 71.1 °F - 71.1 °F 100% 30.23 in 1.8 mi Calm Calm - N/A   Partly Cloudy
8:04 AM 71.6 °F - 71.6 °F 100% 30.24 in 2.5 mi Calm Calm - N/A   Clear
8:13 AM 71.6 °F - 71.6 °F 100% 30.24 in 3.0 mi Calm Calm - N/A   Clear
8:53 AM 75.0 °F - 73.0 °F 94% 30.23 in 5.0 mi SSW 4.6 mph - N/A   Clear
9:53 AM 78.1 °F - 72.0 °F 81% 30.24 in 9.0 mi SSW 9.2 mph - N/A   Clear
10:53 AM 81.0 °F 85.8 °F 73.0 °F 77% 30.23 in 10.0 mi SSW 10.4 mph - N/A   Clear
11:53 AM 82.0 °F 86.7 °F 72.0 °F 71% 30.22 in 10.0 mi SSW 10.4 mph - N/A   Clear
12:53 PM 84.0 °F 90.2 °F 73.0 °F 69% 30.20 in 9.0 mi SSW 9.2 mph - N/A   Partly Cloudy
1:53 PM 84.0 °F 90.2 °F 73.0 °F 69% 30.18 in 9.0 mi South 9.2 mph - N/A   Clear
2:53 PM 84.9 °F 91.4 °F 73.0 °F 67% 30.15 in 10.0 mi South 6.9 mph - N/A   Clear
3:53 PM 86.0 °F 92.2 °F 72.0 °F 63% 30.14 in 10.0 mi SW 9.2 mph - N/A   Clear
4:53 PM 84.9 °F 90.1 °F 71.1 °F 63% 30.12 in 10.0 mi SSW 8.1 mph - N/A   Clear
5:53 PM 84.0 °F 89.6 °F 72.0 °F 67% 30.11 in 10.0 mi SSW 8.1 mph - N/A   Clear
6:53 PM 82.0 °F 87.9 °F 73.9 °F 76% 30.11 in 9.0 mi South 4.6 mph - N/A   Clear
7:53 PM 78.1 °F - 73.0 °F 84% 30.11 in 8.0 mi SSW 3.5 mph - N/A   Clear
8:53 PM 75.9 °F - 73.0 °F 91% 30.12 in 8.0 mi SSW 3.5 mph - N/A   Clear
9:53 PM 73.9 °F - 72.0 °F 93% 30.11 in 8.0 mi SSW 3.5 mph - N/A   Clear
10:53 PM 73.0 °F - 72.0 °F 96% 30.11 in 7.0 mi SW 4.6 mph - N/A   Clear
11:53 PM 72.0 °F - 71.1 °F 97% 30.10 in 6.0 mi SSW 3.5 mph - N/A   Clear